Benson, MN

1:36 PM CDT on April 23, 2017 (GMT -0500)
Benson Municipal

Weather History for KBBB - December, 2012

Change the Weather History Date:

Saturday, December 1, 2012

  Actual Average Record
Temperature  
Mean Temperature 38 °F -  
Max Temperature 50 °F 30 °F 62 °F (1998)
Min Temperature 26 °F 15 °F -11 °F (2014)
Degree Days  
Heating Degree Days 27    
Moisture  
Dew Point 33 °F    
Average Humidity 83    
Maximum Humidity 100    
Minimum Humidity 58    
Precipitation  
Precipitation 0.00 in - - ()
Sea Level Pressure  
Sea Level Pressure 29.78 in    
Wind  
Wind Speed 11 mph (SW)    
Max Wind Speed 18 mph    
Max Gust Speed 29 mph    
Visibility 6 miles    
Events      
Averages and records for this station are not official NWS values.
T = Trace of Precipitation, MM = Missing Value Source: NWS Daily Summary

Daily Weather History Graph

Daily Weather History Graph

Search for Another Location

Airport or City:

Trip Planner

Search our weather history database for the weather conditions in past years. The results will help you decide how hot, cold, wet, or windy it might be!

Date:

Astronomy

Dec. 01, 2012 Rise Set
Actual Time 7:42 AM CST 4:41 PM CST
Civil Twilight 7:08 AM CST 5:14 PM CST
Nautical Twilight 6:32 AM CST 5:51 PM CST
Astronomical Twilight 5:56 AM CST 6:27 PM CST
Moon 7:34 PM CST (12/1) 9:53 AM CST (12/1)
Length of Visible Light 10h 05m
Length of Day
8h 58m
Waning Gibbous, 91% of the Moon is Illuminated
Dec 1
Waning Gibbous
Dec 6
Last Quarter
Dec 13
New
Dec 19
First Quarter
Dec 28
Full

Hourly Weather History & Observations

Time (CST) Temp. Windchill Dew Point Humidity Pressure Visibility Wind Dir Wind Speed Gust Speed Precip Events Conditions
12:13 AM 33.8 °F 23.9 °F 32.0 °F 93% 29.93 in 3.0 mi South 15.0 mph 24.2 mph N/A   Overcast
12:32 AM 33.8 °F 23.5 °F 32.0 °F 93% 29.91 in 3.0 mi South 16.1 mph 23.0 mph N/A   Overcast
12:53 AM 33.8 °F 24.3 °F 32.0 °F 93% 29.90 in 3.0 mi South 13.8 mph 19.6 mph N/A   Overcast
1:13 AM 33.8 °F 23.9 °F 32.0 °F 93% 29.89 in 3.0 mi South 15.0 mph 25.3 mph N/A   Overcast
1:32 AM 33.8 °F 23.5 °F 33.8 °F 100% 29.88 in 3.0 mi South 16.1 mph 23.0 mph N/A   Overcast
1:53 AM 35.6 °F 27.1 °F 33.8 °F 93% 29.88 in 3.0 mi South 12.7 mph 21.9 mph N/A   Overcast
2:13 AM 35.6 °F 25.9 °F 33.8 °F 93% 29.86 in 3.0 mi South 16.1 mph 21.9 mph N/A   Overcast
2:32 AM 35.6 °F 25.5 °F 33.8 °F 93% 29.85 in 3.0 mi South 17.3 mph 24.2 mph N/A   Overcast
2:53 AM 35.6 °F 25.9 °F 33.8 °F 93% 29.84 in 3.0 mi South 16.1 mph 24.2 mph N/A   Mostly Cloudy
3:13 AM 35.6 °F 25.9 °F 33.8 °F 93% 29.83 in 3.0 mi South 16.1 mph 23.0 mph N/A   Mostly Cloudy
3:32 AM 35.6 °F 25.9 °F 33.8 °F 93% 29.82 in 3.0 mi South 16.1 mph 23.0 mph N/A   Scattered Clouds
3:53 AM 35.6 °F 25.9 °F 33.8 °F 93% 29.79 in 2.5 mi South 16.1 mph 26.5 mph N/A   Scattered Clouds
4:13 AM 35.6 °F 25.2 °F 33.8 °F 93% 29.77 in 3.0 mi South 18.4 mph 25.3 mph N/A   Mist
4:32 AM 35.6 °F 25.2 °F 33.8 °F 93% 29.76 in 3.0 mi South 18.4 mph 25.3 mph N/A   Mist
4:53 AM 35.6 °F 25.9 °F 33.8 °F 93% 29.75 in 3.0 mi South 16.1 mph 25.3 mph N/A   Clear
5:13 AM 35.6 °F 25.9 °F 33.8 °F 93% 29.73 in 3.0 mi South 16.1 mph 28.8 mph N/A   Clear
5:32 AM 35.6 °F 25.5 °F 33.8 °F 93% 29.72 in 4.0 mi South 17.3 mph 25.3 mph N/A   Clear
5:53 AM 35.6 °F 26.2 °F 33.8 °F 93% 29.73 in 4.0 mi South 15.0 mph - N/A   Clear
6:13 AM 35.6 °F 27.5 °F 33.8 °F 93% 29.74 in 4.0 mi South 11.5 mph - N/A   Clear
6:33 AM 35.6 °F 28.0 °F 33.8 °F 93% 29.74 in 4.0 mi South 10.4 mph - N/A   Clear
6:53 AM 35.6 °F 27.1 °F 33.8 °F 93% 29.72 in 4.0 mi South 12.7 mph 18.4 mph N/A   Clear
7:13 AM 35.6 °F 27.1 °F 33.8 °F 93% 29.72 in 4.0 mi South 12.7 mph 17.3 mph N/A   Clear
7:33 AM 35.6 °F 29.2 °F 33.8 °F 93% 29.74 in 4.0 mi South 8.1 mph - N/A   Clear
7:53 AM 35.6 °F 27.5 °F 33.8 °F 93% 29.73 in 5.0 mi South 11.5 mph - N/A   Scattered Clouds
8:13 AM 35.6 °F 28.0 °F 33.8 °F 93% 29.72 in 5.0 mi South 10.4 mph - N/A   Scattered Clouds
8:33 AM 37.4 °F 30.3 °F 33.8 °F 87% 29.73 in 4.0 mi South 10.4 mph - N/A   Clear
8:53 AM 37.4 °F 30.3 °F 33.8 °F 87% 29.72 in 4.0 mi South 10.4 mph - N/A   Clear
9:13 AM 37.4 °F 30.8 °F 33.8 °F 87% 29.73 in 4.0 mi South 9.2 mph - N/A   Clear
9:33 AM 37.4 °F 30.3 °F 33.8 °F 87% 29.71 in 4.0 mi South 10.4 mph - N/A   Clear
9:53 AM 39.2 °F 32.5 °F 35.6 °F 87% 29.73 in 4.0 mi South 10.4 mph - N/A   Clear
10:12 AM 39.2 °F 33.0 °F 35.6 °F 87% 29.73 in 4.0 mi SSW 9.2 mph - N/A   Clear
10:33 AM 39.2 °F 33.0 °F 35.6 °F 87% 29.73 in 5.0 mi SSW 9.2 mph - N/A   Clear
10:53 AM 41.0 °F 35.2 °F 37.4 °F 87% 29.74 in 5.0 mi SW 9.2 mph - N/A   Clear
11:12 AM 42.8 °F 38.6 °F 37.4 °F 81% 29.72 in 5.0 mi SSW 6.9 mph - N/A   Haze
11:33 AM 44.6 °F 40.7 °F 37.4 °F 76% 29.72 in 5.0 mi SW 6.9 mph - N/A   Haze
11:53 AM 44.6 °F 40.7 °F 37.4 °F 76% 29.70 in 7.0 mi WSW 6.9 mph - N/A   Clear
12:12 PM 46.4 °F 43.5 °F 37.4 °F 71% 29.69 in 7.0 mi West 5.8 mph - N/A   Clear
12:33 PM 46.4 °F 43.5 °F 37.4 °F 71% 29.70 in 7.0 mi West 5.8 mph - N/A   Clear
12:53 PM 48.2 °F - 35.6 °F 62% 29.70 in 10.0 mi WNW 6.9 mph - N/A   Clear
1:13 PM 48.2 °F - 35.6 °F 62% 29.70 in 10.0 mi WNW 4.6 mph - N/A   Clear
1:33 PM 48.2 °F - 35.6 °F 62% 29.70 in 10.0 mi NW 5.8 mph - N/A   Clear
1:53 PM 50.0 °F - 35.6 °F 58% 29.70 in 10.0 mi NNW 9.2 mph - N/A   Clear
2:13 PM 50.0 °F - 35.6 °F 58% 29.70 in 10.0 mi NNW 8.1 mph - N/A   Clear
2:33 PM 50.0 °F - 35.6 °F 58% 29.70 in 10.0 mi NW 8.1 mph - N/A   Clear
2:52 PM 50.0 °F - 35.6 °F 58% 29.71 in 10.0 mi NNW 6.9 mph - N/A   Clear
3:13 PM 48.2 °F - 35.6 °F 62% 29.71 in 10.0 mi NNW 8.1 mph - N/A   Clear
3:33 PM 48.2 °F - 35.6 °F 62% 29.72 in 10.0 mi NNW 8.1 mph - N/A   Clear
3:52 PM 46.4 °F 42.9 °F 33.8 °F 62% 29.73 in 10.0 mi NNW 6.9 mph - N/A   Clear
4:13 PM 42.8 °F 38.6 °F 33.8 °F 70% 29.75 in 10.0 mi NNW 6.9 mph - N/A   Clear
4:33 PM 41.0 °F 38.0 °F 33.8 °F 76% 29.75 in 10.0 mi North 4.6 mph - N/A   Clear
4:52 PM 39.2 °F - 32.0 °F 75% 29.76 in 10.0 mi Calm Calm - N/A   Clear
5:13 PM 37.4 °F - 30.2 °F 75% 29.76 in 10.0 mi Calm Calm - N/A   Clear
5:32 PM 37.4 °F 31.4 °F 30.2 °F 75% 29.77 in 10.0 mi NNW 8.1 mph - N/A   Clear
5:53 PM 37.4 °F - 30.2 °F 75% 29.78 in 10.0 mi Calm Calm - N/A   Clear
6:13 PM 35.6 °F 31.7 °F 30.2 °F 81% 29.78 in 10.0 mi NNW 4.6 mph - N/A   Clear
6:32 PM 35.6 °F 30.7 °F 30.2 °F 81% 29.79 in 10.0 mi NNW 5.8 mph - N/A   Clear
6:53 PM 35.6 °F 31.7 °F 30.2 °F 81% 29.80 in 10.0 mi NW 4.6 mph - N/A   Scattered Clouds
7:13 PM 37.4 °F 32.8 °F 30.2 °F 75% 29.78 in 10.0 mi North 5.8 mph - N/A   Mostly Cloudy
7:53 PM 37.4 °F 32.1 °F 30.2 °F 75% 29.81 in 10.0 mi North 6.9 mph - N/A   Mostly Cloudy
8:13 PM 37.4 °F 31.4 °F 30.2 °F 75% 29.82 in 10.0 mi North 8.1 mph - N/A   Scattered Clouds
8:32 PM 35.6 °F 30.7 °F 28.4 °F 75% 29.82 in 7.0 mi NNE 5.8 mph - N/A   Clear
8:53 PM 32.0 °F 25.6 °F 28.4 °F 87% 29.83 in 7.0 mi North 6.9 mph - N/A   Clear
9:12 PM 30.2 °F 25.4 °F 28.4 °F 93% 29.83 in 7.0 mi North 4.6 mph - N/A   Clear
9:33 PM 30.2 °F 25.4 °F 28.4 °F 93% 29.83 in 7.0 mi North 4.6 mph - N/A   Scattered Clouds
9:53 PM 32.0 °F 28.7 °F 28.4 °F 87% 29.84 in 7.0 mi North 3.5 mph - N/A   Clear
10:12 PM 30.2 °F 24.3 °F 28.4 °F 93% 29.85 in 5.0 mi North 5.8 mph - N/A   Scattered Clouds
10:33 PM 28.4 °F 22.2 °F 26.6 °F 93% 29.85 in 5.0 mi North 5.8 mph - N/A   Clear
10:53 PM 28.4 °F - 26.6 °F 93% 29.85 in 4.0 mi Calm Calm - N/A   Clear
11:12 PM 28.4 °F - 26.6 °F 93% 29.86 in 4.0 mi Calm Calm - N/A   Clear
11:33 PM 26.6 °F - 24.8 °F 93% 29.87 in 4.0 mi Calm Calm - N/A   Clear
11:53 PM 26.6 °F 22.6 °F 24.8 °F 93% 29.88 in 3.0 mi NW 3.5 mph - N/A   Clear